Station History

Weather Underground - logo

Station Historical Data
Daily Summary for February 19, 2018 Units:  Metric    English   Both
« Previous Day
Next Day »
Daily Weekly Monthly Yearly Custom
  High: Low: Average:
Temperature: 11.5 °C -0.1 °C 5.7 °C
Dew Point: 1.5 °C -3.9 °C -0.8 °C
Humidity: 88 % 35 % 65 %
Wind Speed: 29.6 km/h 0 km/h 3.1 km/h
Wind Gust: 29.6 km/h - -
Wind:- - West
Pressure: 1020.9 hPa 1013.1 hPa -
Precipitation: 0 mm    
Historical Graphs
 
 
Tabular Data for February 19, 2018
Time Temperature Dew Point Pressure Wind Wind Speed Wind Gust Humidity Rainfall Rate (Hourly)
00:03 7.7 °C 0.9 °C 1013.4 hPa WNW 7.4 km/h 7.4 km/h 62 % 0 mm
00:08 7.6 °C 0.7 °C 1013.1 hPa WNW 5.6 km/h 5.6 km/h 62 % 0 mm
00:13 7.5 °C 0.7 °C 1013.4 hPa WNW 18.5 km/h 18.5 km/h 62 % 0 mm
00:18 7.5 °C 0.7 °C 1013.4 hPa WNW 16.7 km/h 16.7 km/h 62 % 0 mm
00:23 7.6 °C 0.7 °C 1013.4 hPa NW 5.6 km/h 5.6 km/h 62 % 0 mm
00:28 7.3 °C 0.7 °C 1013.4 hPa NW 6.4 km/h 6.4 km/h 63 % 0 mm
00:33 7.1 °C 0.8 °C 1013.4 hPa WNW 5.6 km/h 5.6 km/h 64 % 0 mm
00:38 7.1 °C 0.8 °C 1013.8 hPa NW 7.4 km/h 7.4 km/h 64 % 0 mm
00:43 7 °C 0.7 °C 1013.8 hPa NW 7.4 km/h 7.4 km/h 64 % 0 mm
00:48 6.9 °C 0.8 °C 1013.8 hPa NW 6.4 km/h 6.4 km/h 65 % 0 mm
00:53 6.8 °C 0.7 °C 1013.8 hPa NNW 6.4 km/h 6.4 km/h 65 % 0 mm
00:58 6.7 °C 0.6 °C 1013.8 hPa NW 6.4 km/h 6.4 km/h 65 % 0 mm
01:03 6.9 °C 0.8 °C 1013.8 hPa NW 5.6 km/h 5.6 km/h 65 % 0 mm
01:08 6.8 °C 0.7 °C 1013.8 hPa NW 7.4 km/h 7.4 km/h 65 % 0 mm
01:13 6.7 °C 0.6 °C 1013.8 hPa NW 1.9 km/h 1.9 km/h 65 % 0 mm
01:18 6.6 °C 0.7 °C 1013.8 hPa NW 1.9 km/h 1.9 km/h 66 % 0 mm
01:24 6.5 °C 0.6 °C 1013.8 hPa WNW 1.9 km/h   66 % 0 mm
01:28 6.4 °C 0.7 °C 1013.8 hPa WNW 1.9 km/h   67 % 0 mm
01:34 6.3 °C 0.6 °C 1014.1 hPa WNW 1.9 km/h   67 % 0 mm
01:39 6.1 °C 0.7 °C 1014.1 hPa Calm     68 % 0 mm
01:44 5.9 °C 0.5 °C 1014.1 hPa Calm     68 % 0 mm
01:49 5.8 °C 0.6 °C 1013.8 hPa NNW 1.9 km/h   69 % 0 mm
01:54 5.7 °C 0.4 °C 1013.8 hPa Calm     69 % 0 mm
01:59 5.5 °C 0.7 °C 1014.1 hPa Calm     71 % 0 mm
02:04 5.3 °C 0.4 °C 1013.8 hPa Calm     71 % 0 mm
02:09 5.1 °C 0.5 °C 1013.8 hPa Calm     72 % 0 mm
02:14 5 °C 0.4 °C 1013.8 hPa Calm     72 % 0 mm
02:19 4.8 °C 0.2 °C 1013.8 hPa Calm     72 % 0 mm
02:24 4.6 °C 0.1 °C 1013.8 hPa Calm     73 % 0 mm
02:29 4.4 °C 0.3 °C 1013.8 hPa Calm     75 % 0 mm
02:34 4.4 °C 0.3 °C 1014.1 hPa NNW 1.9 km/h   75 % 0 mm
02:39 4.4 °C 0.4 °C 1014.1 hPa Calm     75 % 0 mm
02:44 4.6 °C 0.3 °C 1014.1 hPa Calm     74 % 0 mm
02:49 4.5 °C 0.1 °C 1014.1 hPa Calm     73 % 0 mm
02:54 4.4 °C 0.2 °C 1014.1 hPa Calm     74 % 0 mm
02:59 4.3 °C 0.2 °C 1014.1 hPa Calm     75 % 0 mm
03:04 4.2 °C 0.1 °C 1014.1 hPa Calm     75 % 0 mm
03:09 4.1 °C 0.2 °C 1014.1 hPa Calm     76 % 0 mm
03:14 4.1 °C 0.2 °C 1014.1 hPa Calm     76 % 0 mm
03:19 3.9 °C 0.1 °C 1014.1 hPa Calm     76 % 0 mm
03:24 3.8 °C -0.1 °C 1014.1 hPa Calm     76 % 0 mm
03:29 3.6 °C -0.1 °C 1013.8 hPa Calm     77 % 0 mm
03:34 3.5 °C 0 °C 1013.8 hPa Calm     78 % 0 mm
03:39 3.3 °C -0.2 °C 1013.8 hPa Calm     78 % 0 mm
03:44 3.2 °C -0.1 °C 1013.8 hPa Calm     79 % 0 mm
03:49 3.1 °C 0 °C 1013.8 hPa Calm     80 % 0 mm
03:54 3.1 °C -0.2 °C 1013.8 hPa Calm     79 % 0 mm
03:59 2.9 °C -0.4 °C 1013.8 hPa Calm     79 % 0 mm
04:05 2.8 °C -0.1 °C 1014.1 hPa Calm     81 % 0 mm
04:10 2.8 °C -0.2 °C 1013.8 hPa Calm     81 % 0 mm
04:15 2.7 °C -0.3 °C 1013.8 hPa Calm     81 % 0 mm
04:20 2.6 °C -0.3 °C 1013.8 hPa Calm     81 % 0 mm
04:25 2.5 °C -0.4 °C 1013.8 hPa Calm     81 % 0 mm
04:30 2.4 °C -0.5 °C 1013.8 hPa Calm     81 % 0 mm
04:35 2.3 °C -0.6 °C 1013.8 hPa Calm     81 % 0 mm
04:40 2.2 °C -0.8 °C 1013.8 hPa Calm     81 % 0 mm
04:45 2.1 °C -0.7 °C 1013.8 hPa Calm     82 % 0 mm
04:50 2 °C -0.8 °C 1014.1 hPa Calm     82 % 0 mm
04:55 1.9 °C -0.8 °C 1014.1 hPa Calm     82 % 0 mm
05:00 1.8 °C -0.9 °C 1013.8 hPa Calm     82 % 0 mm
05:05 1.8 °C -0.8 °C 1013.8 hPa Calm     83 % 0 mm
05:10 1.8 °C -0.8 °C 1014.1 hPa Calm     83 % 0 mm
05:15 1.8 °C -0.9 °C 1014.1 hPa Calm     82 % 0 mm
05:20 1.7 °C -0.8 °C 1014.1 hPa Calm     83 % 0 mm
05:25 1.6 °C -0.9 °C 1014.1 hPa Calm     83 % 0 mm
05:30 1.6 °C -1 °C 1014.1 hPa Calm     83 % 0 mm
05:35 1.5 °C -1.1 °C 1014.1 hPa Calm     83 % 0 mm
05:40 1.4 °C -0.9 °C 1014.1 hPa Calm     84 % 0 mm
05:45 1.3 °C -1.3 °C 1014.4 hPa Calm     83 % 0 mm
05:50 1.1 °C -1.3 °C 1014.4 hPa Calm     84 % 0 mm
05:55 0.9 °C -1.5 °C 1014.4 hPa Calm     84 % 0 mm
06:00 0.8 °C -1.6 °C 1014.4 hPa Calm     84 % 0 mm
06:05 0.7 °C -1.5 °C 1014.4 hPa Calm     85 % 0 mm
06:10 0.7 °C -1.6 °C 1014.4 hPa Calm     85 % 0 mm
06:15 0.9 °C -1.3 °C 1014.4 hPa Calm     85 % 0 mm
06:21 1.1 °C -1.3 °C 1014.4 hPa Calm     84 % 0 mm
06:26 1.1 °C -1.3 °C 1014.4 hPa Calm     84 % 0 mm
06:31 1.1 °C -1.5 °C 1014.8 hPa Calm     83 % 0 mm
06:36 0.9 °C -1.4 °C 1014.8 hPa Calm     84 % 0 mm
06:41 0.5 °C -2.2 °C 1014.8 hPa Calm     82 % 0 mm
06:46 0.2 °C -2.2 °C 1014.8 hPa Calm     84 % 0 mm
06:51 -0.1 °C -2.3 °C 1015.1 hPa Calm     85 % 0 mm
06:56 -0.1 °C -2.2 °C 1015.1 hPa Calm     86 % 0 mm
07:01 -0.1 °C -1.9 °C 1015.1 hPa Calm     87 % 0 mm
07:06 0.1 °C -1.7 °C 1015.1 hPa Calm     88 % 0 mm
07:11 0.3 °C -1.4 °C 1015.1 hPa Calm     88 % 0 mm
07:16 0.4 °C -1.4 °C 1015.1 hPa Calm     88 % 0 mm
07:21 0.5 °C -1.3 °C 1015.1 hPa Calm     88 % 0 mm
07:26 0.8 °C -0.9 °C 1015.1 hPa Calm     88 % 0 mm
07:31 1.1 °C -0.8 °C 1015.1 hPa Calm     87 % 0 mm
07:36 1.4 °C -0.5 °C 1015.1 hPa Calm     87 % 0 mm
07:41 2.1 °C -0.2 °C 1015.1 hPa Calm     85 % 0 mm
07:46 2.9 °C 0.3 °C 1015.1 hPa Calm     83 % 0 mm
07:51 4 °C 1.1 °C 1015.1 hPa Calm     81 % 0 mm
07:56 4.7 °C 1.3 °C 1015.5 hPa Calm     79 % 0 mm
08:01 5.4 °C 1.5 °C 1015.5 hPa Calm     76 % 0 mm
08:06 5.9 °C 1.3 °C 1015.1 hPa Calm     72 % 0 mm
08:11 6.2 °C 1.2 °C 1015.1 hPa Calm     70 % 0 mm
08:16 6.2 °C 0.9 °C 1015.1 hPa Calm     69 % 0 mm
08:21 6 °C 0.7 °C 1015.1 hPa Calm     69 % 0 mm
08:26 6.1 °C 0.8 °C 1015.5 hPa Calm     69 % 0 mm
08:31 6.2 °C 0.9 °C 1015.5 hPa Calm     69 % 0 mm
08:36 6.3 °C 1.1 °C 1015.5 hPa Calm     69 % 0 mm
08:41 6.5 °C 0.4 °C 1015.5 hPa NW 3.7 km/h 3.7 km/h 65 % 0 mm
08:46 6.5 °C 0.2 °C 1015.5 hPa NNW 3.7 km/h 3.7 km/h 64 % 0 mm
08:51 6.5 °C -0.1 °C 1015.5 hPa North 1.9 km/h   63 % 0 mm
08:56 6.6 °C 0.2 °C 1015.5 hPa WNW 3.2 km/h 3.2 km/h 64 % 0 mm
09:01 6.5 °C -0.1 °C 1015.5 hPa NW 1.9 km/h 1.9 km/h 63 % 0 mm
09:06 6.7 °C 0.1 °C 1015.5 hPa WNW 5.6 km/h 5.6 km/h 63 % 0 mm
09:11 6.9 °C -0.1 °C 1015.5 hPa NW 3.7 km/h 3.7 km/h 61 % 0 mm
09:16 7.1 °C 0.1 °C 1015.8 hPa WNW 3.7 km/h 4.3 km/h 61 % 0 mm
09:22 7.1 °C -0.1 °C 1015.8 hPa NW 5.6 km/h 5.6 km/h 60 % 0 mm
09:26 7.3 °C 0 °C 1015.8 hPa North 4.8 km/h 4.8 km/h 60 % 0 mm
09:32 7.5 °C -0.2 °C 1015.8 hPa West 3.7 km/h 3.7 km/h 58 % 0 mm
09:37 7.5 °C -1.2 °C 1015.8 hPa NNE 9.3 km/h 9.3 km/h 54 % 0 mm
09:42 7.4 °C -1 °C 1015.8 hPa WNW 5.6 km/h 5.6 km/h 55 % 0 mm
09:47 7.5 °C -0.9 °C 1015.8 hPa WNW 9.3 km/h 9.3 km/h 55 % 0 mm
09:52 7.4 °C -1.5 °C 1015.8 hPa NNW 9.3 km/h 9.3 km/h 53 % 0 mm
09:57 7.4 °C -1.8 °C 1015.8 hPa NW 11.1 km/h 11.1 km/h 52 % 0 mm
10:02 7.3 °C -1.7 °C 1015.8 hPa NW 5.6 km/h 5.6 km/h 53 % 0 mm
10:07 7.3 °C -1.6 °C 1015.8 hPa North 5.6 km/h 5.6 km/h 53 % 0 mm
10:12 7.6 °C -1.7 °C 1015.8 hPa NW 6.4 km/h 6.4 km/h 52 % 0 mm
10:17 7.6 °C -1.6 °C 1015.8 hPa NW 8 km/h 8 km/h 52 % 0 mm
10:22 7.9 °C -1.1 °C 1016.1 hPa WSW 6.4 km/h 6.4 km/h 53 % 0 mm
10:27 8.2 °C -1.7 °C 1016.1 hPa West 5.6 km/h 5.6 km/h 50 % 0 mm
10:32 8.3 °C -1.8 °C 1016.1 hPa NW 3.7 km/h 3.7 km/h 49 % 0 mm
10:37 8.5 °C -1.3 °C 1016.1 hPa WNW 5.6 km/h 5.6 km/h 50 % 0 mm
10:42 8.5 °C -1.3 °C 1016.1 hPa WNW 5.6 km/h 5.6 km/h 50 % 0 mm
10:47 8.4 °C -1.2 °C 1015.8 hPa NW 5.6 km/h 5.6 km/h 51 % 0 mm
10:52 8.4 °C -0.8 °C 1015.8 hPa WNW 9.3 km/h 9.3 km/h 52 % 0 mm
10:57 8.4 °C -1.1 °C 1015.8 hPa WNW 5.6 km/h 5.6 km/h 51 % 0 mm
11:02 8.7 °C -1.2 °C 1015.8 hPa NW 5.6 km/h 5.6 km/h 50 % 0 mm
11:07 8.8 °C -0.8 °C 1015.8 hPa WNW 6.4 km/h 6.4 km/h 51 % 0 mm
11:12 8.9 °C -1.5 °C 1015.8 hPa NW 5.6 km/h 5.6 km/h 48 % 0 mm
11:17 9.1 °C -1.1 °C 1015.8 hPa WNW 1.9 km/h 1.9 km/h 49 % 0 mm
11:22 9.4 °C -1.3 °C 1015.8 hPa NW 5.6 km/h 5.6 km/h 47 % 0 mm
11:27 9.8 °C -1.3 °C 1015.8 hPa NE 5.6 km/h 5.6 km/h 46 % 0 mm
11:32 9.9 °C -1.8 °C 1015.8 hPa NW 9.7 km/h 9.7 km/h 44 % 0 mm
11:37 9.9 °C -2.1 °C 1015.8 hPa NW 11.1 km/h 11.1 km/h 43 % 0 mm
11:42 9.9 °C -1.8 °C 1015.8 hPa WSW 9.3 km/h 9.3 km/h 44 % 0 mm
11:47 10.2 °C -2.2 °C 1015.8 hPa NW 7.4 km/h 7.4 km/h 42 % 0 mm
11:52 10.2 °C -1.8 °C 1015.8 hPa WNW 5.6 km/h 5.6 km/h 43 % 0 mm
11:57 10.2 °C -1.6 °C 1015.8 hPa WNW 5.6 km/h 5.6 km/h 44 % 0 mm
12:02 9.5 °C -2.2 °C 1015.8 hPa NW 11.1 km/h 11.1 km/h 44 % 0 mm
12:08 9.1 °C -1.9 °C 1015.8 hPa NW 5.6 km/h 5.6 km/h 46 % 0 mm
12:13 9 °C -2 °C 1015.8 hPa NW 11.1 km/h 11.1 km/h 46 % 0 mm
12:18 9.1 °C -2.3 °C 1015.8 hPa NW 6.4 km/h 6.4 km/h 45 % 0 mm
12:23 9.7 °C -1.4 °C 1015.5 hPa NW 7.4 km/h 7.4 km/h 46 % 0 mm
12:28 9.8 °C -2.2 °C 1015.5 hPa NW 7.4 km/h 7.4 km/h 43 % 0 mm
12:33 9.6 °C -2.1 °C 1015.5 hPa NW 11.1 km/h 11.1 km/h 44 % 0 mm
12:38 9.8 °C -1.9 °C 1015.5 hPa NW 5.6 km/h 5.6 km/h 44 % 0 mm
12:43 10.1 °C -2.2 °C 1015.5 hPa NW 7.4 km/h 7.4 km/h 42 % 0 mm
12:48 10.2 °C -2.5 °C 1015.5 hPa NW 11.1 km/h 11.1 km/h 41 % 0 mm
12:53 10.1 °C -2.6 °C 1015.5 hPa NW 9.7 km/h 9.7 km/h 41 % 0 mm
12:58 10.2 °C -1.8 °C 1015.5 hPa NW 11.1 km/h 11.1 km/h 43 % 0 mm
13:03 10.1 °C -2 °C 1015.5 hPa NNE 5.6 km/h 5.6 km/h 43 % 0 mm
13:08 10.2 °C -2.8 °C 1015.5 hPa NW 9.3 km/h 9.3 km/h 40 % 0 mm
13:14 10.2 °C -2.2 °C 1015.1 hPa WNW 8 km/h 8 km/h 42 % 0 mm
13:19 10.6 °C -2.5 °C 1015.1 hPa NNW 5.6 km/h 5.6 km/h 40 % 0 mm
13:24 10.4 °C -2.6 °C 1015.1 hPa WNW 13 km/h 13 km/h 40 % 0 mm
13:29 10.3 °C -3.1 °C 1015.1 hPa West 5.6 km/h 5.6 km/h 39 % 0 mm
13:34 10.1 °C -2.9 °C 1015.1 hPa WNW 11.3 km/h 11.3 km/h 40 % 0 mm
13:39 9.7 °C -3.3 °C 1015.1 hPa NNW 7.4 km/h 7.4 km/h 40 % 0 mm
13:44 9.6 °C -2.7 °C 1015.1 hPa NNE 5.6 km/h 5.6 km/h 42 % 0 mm
13:49 9.7 °C -2.6 °C 1015.1 hPa NW 1.9 km/h 1.9 km/h 42 % 0 mm
13:54 10.2 °C -2.8 °C 1015.1 hPa WNW 3.7 km/h 3.7 km/h 40 % 0 mm
13:59 10.3 °C -2.8 °C 1015.1 hPa NW 5.6 km/h 5.6 km/h 40 % 0 mm
14:04 10.1 °C -3.2 °C 1015.1 hPa WNW 5.6 km/h 5.6 km/h 39 % 0 mm
14:09 10.6 °C -2.5 °C 1015.1 hPa NNW 6.4 km/h 6.4 km/h 40 % 0 mm
14:14 10.6 °C -2.8 °C 1015.1 hPa West 8 km/h 8 km/h 39 % 0 mm
14:19 10.8 °C -2.7 °C 1015.1 hPa NNW 9.3 km/h 9.3 km/h 39 % 0 mm
14:24 11.2 °C -3 °C 1015.1 hPa WNW 9.3 km/h 9.3 km/h 37 % 0 mm
14:29 11.3 °C -2.9 °C 1015.1 hPa NW 9.7 km/h 9.7 km/h 37 % 0 mm
14:34 11.5 °C -2.3 °C 1015.1 hPa WNW 11.1 km/h 11.1 km/h 38 % 0 mm
14:39 11.3 °C -2.8 °C 1015.1 hPa SW 5.6 km/h 5.6 km/h 37 % 0 mm
14:44 11.2 °C -2.3 °C 1014.8 hPa WNW 13 km/h 13 km/h 39 % 0 mm
14:49 11.3 °C -2.8 °C 1014.8 hPa WNW 13 km/h 13 km/h 37 % 0 mm
14:54 11.1 °C -3.4 °C 1014.8 hPa NW 9.3 km/h 9.3 km/h 36 % 0 mm
14:59 10.8 °C -3.3 °C 1015.1 hPa WNW 9.3 km/h 9.3 km/h 37 % 0 mm
15:04 10.9 °C -3.9 °C 1014.8 hPa NNW 5.6 km/h 5.6 km/h 35 % 0 mm
15:09 11.2 °C -1.2 °C 1015.1 hPa West 29.6 km/h 29.6 km/h 42 % 0 mm
15:14 11 °C -0.5 °C 1015.5 hPa NW 9.3 km/h 9.3 km/h 45 % 0 mm
15:19 10.7 °C -0.2 °C 1015.5 hPa WNW 14.8 km/h 14.8 km/h 47 % 0 mm
15:24 10.2 °C -0.4 °C 1015.5 hPa West 16.7 km/h 16.7 km/h 48 % 0 mm
15:29 9.8 °C 0.4 °C 1015.5 hPa NNW 11.1 km/h 11.1 km/h 52 % 0 mm
15:34 9.6 °C 0.7 °C 1015.5 hPa WNW 5.6 km/h 5.6 km/h 54 % 0 mm
15:39 9.2 °C 0.6 °C 1015.8 hPa WNW 7.4 km/h 7.4 km/h 55 % 0 mm
15:44 8.9 °C 0.4 °C 1015.8 hPa WSW 8 km/h 8 km/h 55 % 0 mm
15:49 8.9 °C -0.4 °C 1015.8 hPa East 7.4 km/h 7.4 km/h 52 % 0 mm
15:54 9 °C -0.3 °C 1015.8 hPa NNW 8 km/h 8 km/h 52 % 0 mm
15:59 9.1 °C -0.3 °C 1015.8 hPa SE 5.6 km/h 5.6 km/h 52 % 0 mm
16:04 9.2 °C -0.2 °C 1015.8 hPa West 9.3 km/h 9.3 km/h 52 % 0 mm
16:09 9.2 °C 0.1 °C 1015.8 hPa ESE 5.6 km/h 5.6 km/h 53 % 0 mm
16:14 9.2 °C 0.1 °C 1015.5 hPa East 3.2 km/h 3.2 km/h 53 % 0 mm
16:19 9.2 °C 0.1 °C 1015.5 hPa Calm   1.1 km/h 53 % 0 mm
16:24 9.3 °C -0.3 °C 1015.8 hPa NW 1.9 km/h   51 % 0 mm
16:29 9.2 °C -0.1 °C 1015.8 hPa East 9.3 km/h 9.3 km/h 52 % 0 mm
16:34 9.2 °C -0.2 °C 1015.8 hPa East 4.8 km/h 4.8 km/h 52 % 0 mm
16:39 9.1 °C -0.8 °C 1015.8 hPa NW 1.9 km/h 1.9 km/h 50 % 0 mm
16:44 9 °C -0.3 °C 1015.8 hPa NW 1.9 km/h   52 % 0 mm
16:49 8.9 °C -0.7 °C 1015.8 hPa East 5.6 km/h 5.6 km/h 51 % 0 mm
16:54 8.8 °C -0.8 °C 1015.8 hPa WNW 3.7 km/h 3.7 km/h 51 % 0 mm
16:59 8.8 °C -1.1 °C 1015.8 hPa SE 3.7 km/h 3.7 km/h 50 % 0 mm
17:04 8.8 °C -1.1 °C 1015.8 hPa Calm   0.2 km/h 50 % 0 mm
17:09 8.7 °C -1.4 °C 1015.8 hPa Calm     49 % 0 mm
17:14 8.7 °C -1.2 °C 1015.8 hPa WNW 1.9 km/h   50 % 0 mm
17:19 8.6 °C -1 °C 1015.8 hPa Calm     51 % 0 mm
17:24 8.5 °C -1.3 °C 1015.8 hPa SE 1.9 km/h   50 % 0 mm
17:29 8.3 °C -1.5 °C 1015.8 hPa SE 1.9 km/h   50 % 0 mm
17:35 8.2 °C -1.6 °C 1015.8 hPa WNW 1.9 km/h 1.9 km/h 50 % 0 mm
17:40 8.2 °C -1.4 °C 1015.8 hPa Calm   0.2 km/h 51 % 0 mm
17:45 8.1 °C -1.5 °C 1015.8 hPa ENE 1.9 km/h   51 % 0 mm
17:50 7.9 °C -1.3 °C 1016.1 hPa Calm     52 % 0 mm
17:55 7.7 °C -1.3 °C 1016.1 hPa Calm     53 % 0 mm
18:00 7.5 °C -1.2 °C 1016.1 hPa Calm     54 % 0 mm
18:05 7.3 °C -0.7 °C 1016.1 hPa Calm     57 % 0 mm
18:10 7 °C -0.5 °C 1016.1 hPa Calm     59 % 0 mm
18:15 6.6 °C 0.3 °C 1016.5 hPa Calm     64 % 0 mm
18:20 6.2 °C -0.1 °C 1016.5 hPa Calm     64 % 0 mm
18:25 6 °C 0.1 °C 1016.5 hPa Calm     66 % 0 mm
18:30 5.8 °C 0.1 °C 1016.5 hPa Calm     67 % 0 mm
18:35 5.5 °C -0.2 °C 1016.5 hPa Calm     67 % 0 mm
18:40 5.2 °C 0.2 °C 1016.5 hPa Calm     70 % 0 mm
18:45 5.1 °C 0.1 °C 1016.8 hPa Calm     70 % 0 mm
18:50 4.9 °C -0.1 °C 1016.8 hPa Calm     70 % 0 mm
18:55 4.8 °C -0.2 °C 1016.8 hPa Calm     70 % 0 mm
19:00 4.9 °C -0.1 °C 1016.8 hPa Calm     70 % 0 mm
19:05 4.9 °C 0.1 °C 1017.2 hPa Calm     71 % 0 mm
19:10 4.9 °C -0.1 °C 1017.2 hPa Calm     70 % 0 mm
19:15 5.1 °C -0.2 °C 1017.2 hPa Calm     69 % 0 mm
19:20 5.3 °C -0.2 °C 1017.2 hPa Calm     68 % 0 mm
19:25 5.4 °C -0.4 °C 1017.2 hPa NW 1.9 km/h   66 % 0 mm
19:30 5.4 °C -0.4 °C 1017.2 hPa Calm     66 % 0 mm
19:35 5.2 °C -0.1 °C 1017.2 hPa Calm     69 % 0 mm
19:40 4.8 °C 0 °C 1017.2 hPa Calm     71 % 0 mm
19:45 4.5 °C 0.1 °C 1017.5 hPa Calm     73 % 0 mm
19:50 4.1 °C -0.1 °C 1017.5 hPa Calm     74 % 0 mm
19:55 3.8 °C -0.2 °C 1017.5 hPa Calm     75 % 0 mm
20:00 3.8 °C -0.2 °C 1017.5 hPa Calm     75 % 0 mm
20:05 3.8 °C -0.4 °C 1017.5 hPa Calm     74 % 0 mm
20:10 3.8 °C -0.4 °C 1017.5 hPa Calm     74 % 0 mm
20:15 3.7 °C -0.3 °C 1017.8 hPa Calm     75 % 0 mm
20:20 3.7 °C -0.7 °C 1017.8 hPa Calm     73 % 0 mm
20:25 3.8 °C -0.6 °C 1017.8 hPa Calm     73 % 0 mm
20:30 3.7 °C -0.7 °C 1017.8 hPa Calm     73 % 0 mm
20:35 3.6 °C -0.6 °C 1017.8 hPa NW 3.2 km/h 3.2 km/h 74 % 0 mm
20:40 3.1 °C -0.7 °C 1018.2 hPa Calm     76 % 0 mm
20:45 3.2 °C -0.5 °C 1018.2 hPa Calm     77 % 0 mm
20:50 3.3 °C -0.7 °C 1018.2 hPa Calm     75 % 0 mm
20:55 3.2 °C -0.7 °C 1018.2 hPa WNW 1.9 km/h   76 % 0 mm
21:00 3.1 °C -0.8 °C 1018.2 hPa Calm     76 % 0 mm
21:05 3.1 °C -0.8 °C 1018.2 hPa Calm     76 % 0 mm
21:10 3.2 °C -0.6 °C 1018.5 hPa Calm     76 % 0 mm
21:15 3.3 °C -0.7 °C 1018.5 hPa WNW 1.9 km/h   75 % 0 mm
21:20 3.3 °C -0.7 °C 1018.5 hPa Calm     75 % 0 mm
21:25 3.2 °C -0.8 °C 1018.8 hPa Calm     75 % 0 mm
21:30 3.1 °C -0.7 °C 1018.8 hPa Calm     76 % 0 mm
21:35 2.9 °C -0.7 °C 1018.8 hPa Calm     77 % 0 mm
21:40 2.7 °C -0.9 °C 1018.8 hPa Calm     77 % 0 mm
21:45 2.7 °C -0.9 °C 1019.2 hPa Calm     77 % 0 mm
21:50 2.8 °C -0.8 °C 1019.2 hPa Calm     77 % 0 mm
21:55 2.7 °C -0.9 °C 1019.2 hPa Calm     77 % 0 mm
22:00 2.7 °C -0.7 °C 1019.2 hPa Calm     78 % 0 mm
22:05 2.7 °C -0.9 °C 1019.2 hPa Calm     77 % 0 mm
22:10 2.6 °C -1.1 °C 1019.2 hPa Calm     77 % 0 mm
22:15 2.4 °C -1 °C 1019.5 hPa Calm     78 % 0 mm
22:20 2.3 °C -1.2 °C 1019.5 hPa Calm     78 % 0 mm
22:25 2.2 °C -1.3 °C 1019.5 hPa Calm     78 % 0 mm
22:30 2 °C -1.4 °C 1019.5 hPa Calm     78 % 0 mm
22:35 1.7 °C -1.6 °C 1019.9 hPa Calm     79 % 0 mm
22:40 1.4 °C -1.7 °C 1019.9 hPa Calm     80 % 0 mm
22:45 1.3 °C -1.4 °C 1019.9 hPa Calm     82 % 0 mm
22:50 1.2 °C -1.6 °C 1019.9 hPa Calm     82 % 0 mm
22:55 0.9 °C -1.8 °C 1019.9 hPa Calm     82 % 0 mm
23:00 0.7 °C -1.8 °C 1019.9 hPa Calm     83 % 0 mm
23:05 0.5 °C -1.9 °C 1020.2 hPa Calm     84 % 0 mm
23:10 0.5 °C -1.7 °C 1020.2 hPa Calm     85 % 0 mm
23:15 0.6 °C -1.6 °C 1020.5 hPa Calm     85 % 0 mm
23:20 0.5 °C -1.9 °C 1020.2 hPa Calm     84 % 0 mm
23:25 0.4 °C -1.8 °C 1020.5 hPa Calm     85 % 0 mm
23:30 0.3 °C -1.9 °C 1020.5 hPa Calm     85 % 0 mm
23:35 0.2 °C -1.9 °C 1020.5 hPa Calm     86 % 0 mm
23:40 0.2 °C -1.9 °C 1020.5 hPa Calm     86 % 0 mm
23:45 0.2 °C -1.7 °C 1020.5 hPa Calm     87 % 0 mm
23:50 0.1 °C -1.8 °C 1020.9 hPa NW 3.7 km/h 3.7 km/h 87 % 0 mm
23:55 0.2 °C -1.9 °C 1020.9 hPa Calm     86 % 0 mm
Park Place, Exeter, Tulare County, California, USA
Compliments of Weather Underground - 2.75 mb